Location: Altenst�hlen
(53.5567°N, 8.9425°E)
Time: 08:42:15
(UTC+00:00)

Cosmos 1461 - Pass Details

Date: 23 October 2019
Orbit: 523 x 644 km, 65.0° (Epoch: 19 November)

Event Time Altitude Azimuth Distance (km) Brightness Sun altitude
Rises 16:46:01 0° 314° (NW) 2,699 6.9 -5.9°
Reaches altitude 10° 16:48:13 10° 310° (NW) 1,818 6.1 -6.2°
Maximum altitude 16:52:13 59° 232° (SW) 648 3.5 -6.8°
Drops below altitude 10° 16:56:20 10° 153° (SSE) 1,871 5.4 -7.4°
Sets 16:58:37 0° 149° (SSE) 2,787 6.2 -7.7°
